TimeEDT,TemperatureF,Dew PointF,Humidity,Sea Level PressureIn,VisibilityMPH,Wind Direction,Wind SpeedMPH,Gust SpeedMPH,PrecipitationIn,Events,Conditions,WindDirDegrees,DateUTC
12:15 AM,67.3,58.8,74,30.27,10.0,WSW,4.6,-,N/A,,Clear,250,2013-08-26 04:15:00
12:35 AM,64.4,59.0,83,30.25,10.0,SSW,4.6,-,N/A,,Clear,210,2013-08-26 04:35:00
12:55 AM,65.5,58.1,77,30.25,10.0,SW,4.6,-,N/A,,Clear,230,2013-08-26 04:55:00
1:15 AM,65.1,58.6,79,30.26,10.0,Calm,Calm,-,N/A,,Clear,0,2013-08-26 05:15:00
1:35 AM,65.5,58.6,79,30.26,10.0,WSW,4.6,-,N/A,,Clear,240,2013-08-26 05:35:00
1:55 AM,65.5,58.8,79,30.25,10.0,SW,4.6,-,N/A,,Clear,220,2013-08-26 05:55:00
2:15 AM,65.5,58.6,79,30.24,10.0,SSW,3.5,-,N/A,,Clear,210,2013-08-26 06:15:00
2:35 AM,65.3,59.0,80,30.24,10.0,South,3.5,-,N/A,,Clear,180,2013-08-26 06:35:00
2:55 AM,63.9,58.8,84,30.23,10.0,SSW,3.5,-,N/A,,Scattered Clouds,210,2013-08-26 06:55:00
3:15 AM,63.1,57.7,83,30.22,10.0,SW,4.6,-,N/A,,Mostly Cloudy,230,2013-08-26 07:15:00
3:35 AM,63.3,58.3,84,30.22,10.0,WSW,4.6,-,N/A,,Scattered Clouds,240,2013-08-26 07:35:00
3:55 AM,62.6,57.9,85,30.20,10.0,SSW,4.6,-,N/A,,Scattered Clouds,210,2013-08-26 07:55:00
4:15 AM,62.6,57.2,82,30.21,10.0,Calm,Calm,-,N/A,,Clear,0,2013-08-26 08:15:00
4:35 AM,62.2,58.5,87,30.22,10.0,Calm,Calm,-,N/A,,Scattered Clouds,0,2013-08-26 08:35:00
4:55 AM,60.1,57.0,90,30.20,10.0,South,3.5,-,N/A,,Scattered Clouds,180,2013-08-26 08:55:00
5:15 AM,63.3,58.3,84,30.22,10.0,Calm,Calm,-,N/A,,Scattered Clouds,0,2013-08-26 09:15:00
5:35 AM,62.6,57.2,82,30.22,10.0,Calm,Calm,-,N/A,,Scattered Clouds,0,2013-08-26 09:35:00
5:55 AM,62.6,57.2,82,30.22,10.0,WSW,5.8,-,N/A,,Scattered Clouds,240,2013-08-26 09:55:00
6:53 AM,60.8,57.2,88,30.23,10.0,South,3.5,-,N/A,,Scattered Clouds,190,2013-08-26 10:53:00
7:53 AM,66.2,59.0,78,30.24,10.0,SW,4.6,-,N/A,,Partly Cloudy,230,2013-08-26 11:53:00
8:53 AM,71.6,59.0,64,30.24,10.0,SW,3.5,-,N/A,,Mostly Cloudy,220,2013-08-26 12:53:00
9:53 AM,75.2,57.2,53,30.22,10.0,West,11.5,18.4,N/A,,Mostly Cloudy,270,2013-08-26 13:53:00
10:53 AM,75.2,57.2,53,30.21,10.0,West,11.5,-,N/A,,Mostly Cloudy,260,2013-08-26 14:53:00
11:53 AM,75.2,60.8,61,30.20,10.0,SSW,5.8,-,N/A,,Mostly Cloudy,210,2013-08-26 15:53:00
12:53 PM,80.6,59.0,48,30.16,10.0,West,12.7,-,N/A,,Mostly Cloudy,260,2013-08-26 16:53:00
1:53 PM,82.4,60.8,48,30.12,10.0,WSW,12.7,-,N/A,,Mostly Cloudy,240,2013-08-26 17:53:00
2:53 PM,86.0,60.8,43,30.09,10.0,WSW,12.7,19.6,N/A,,Clear,240,2013-08-26 18:53:00
3:53 PM,86.0,60.8,43,30.06,10.0,SW,17.3,-,N/A,,Clear,230,2013-08-26 19:53:00
4:53 PM,86.0,59.0,40,30.05,10.0,West,12.7,19.6,N/A,,Clear,270,2013-08-26 20:53:00
5:53 PM,84.2,59.0,42,30.04,10.0,West,11.5,-,N/A,,Clear,270,2013-08-26 21:53:00
6:53 PM,80.6,60.8,51,30.02,10.0,West,11.5,19.6,N/A,,Clear,270,2013-08-26 22:53:00
7:53 PM,77.0,62.6,61,30.05,10.0,West,8.1,-,N/A,,Clear,260,2013-08-26 23:53:00
8:53 PM,77.0,62.6,61,30.06,10.0,WSW,8.1,-,N/A,,Scattered Clouds,250,2013-08-27 00:53:00
9:15 PM,75.7,63.0,64,30.05,10.0,SW,9.2,-,N/A,,Scattered Clouds,230,2013-08-27 01:15:00
9:35 PM,75.2,63.5,67,30.04,10.0,SW,9.2,-,N/A,Rain,Light Rain,230,2013-08-27 01:35:00
9:55 PM,75.7,63.3,65,30.04,10.0,WSW,9.2,-,N/A,Rain,Light Rain,240,2013-08-27 01:55:00
10:15 PM,75.9,62.6,63,30.03,10.0,WSW,11.5,-,N/A,,Scattered Clouds,240,2013-08-27 02:15:00
10:35 PM,74.1,64.6,72,30.03,10.0,West,8.1,-,N/A,Rain,Light Rain,270,2013-08-27 02:35:00
10:55 PM,72.7,65.1,77,30.03,10.0,Calm,Calm,-,N/A,,Light Drizzle,0,2013-08-27 02:55:00
11:15 PM,71.6,65.3,80,30.02,10.0,Calm,Calm,-,N/A,,Scattered Clouds,0,2013-08-27 03:15:00
11:35 PM,72.1,65.1,78,30.02,10.0,WSW,3.5,-,N/A,,Mostly Cloudy,250,2013-08-27 03:35:00
11:55 PM,70.5,65.7,85,30.02,10.0,Calm,Calm,-,N/A,,Mostly Cloudy,0,2013-08-27 03:55:00